Time,TemperatureF,DewpointF,PressureIn,WindDirection,WindDirectionDegrees,WindSpeedMPH,WindSpeedGustMPH,Humidity,HourlyPrecipIn,Conditions,Clouds,dailyrainin,SoftwareType,DateUTC
2013-09-29 00:00:00,48.4,47.8,28.38,NW,315,0.0,0.0,98,0.04,,BKN075,2.11,VWS V14.01,2013-09-29 07:00:00,
2013-09-29 00:01:00,47.7,47.1,28.41,East,90,0.0,0.0,98,0.00,,RA,0.00,VWS V14.01,2013-09-29 07:01:00,
2013-09-29 00:06:00,47.7,47.1,28.41,SSW,202,0.0,0.0,98,0.00,,RA,0.00,VWS V14.01,2013-09-29 07:06:00,
2013-09-29 00:11:00,47.7,47.1,28.41,NW,315,0.0,0.0,98,0.00,,RA,0.00,VWS V14.01,2013-09-29 07:11:00,
2013-09-29 00:15:00,47.7,47.1,28.44,East,90,0.0,0.0,98,0.00,,RA,0.00,VWS V14.01,2013-09-29 07:15:00,
2013-09-29 00:20:00,47.5,47.0,28.44,WSW,248,0.0,0.0,98,0.00,,RA,0.00,VWS V14.01,2013-09-29 07:20:00,
2013-09-29 00:25:00,47.5,47.0,28.44,South,180,0.0,0.0,98,0.00,,RA,0.00,VWS V14.01,2013-09-29 07:25:00,
2013-09-29 00:30:00,47.5,47.0,28.41,WSW,248,0.0,0.0,98,0.00,,RA,0.00,VWS V14.01,2013-09-29 07:30:00,
2013-09-29 00:35:00,47.3,46.8,28.41,North,0,0.0,0.0,98,0.00,,RA,0.00,VWS V14.01,2013-09-29 07:35:00,
2013-09-29 00:40:00,47.3,46.8,28.41,ESE,112,0.0,0.0,98,0.00,,RA,0.00,VWS V14.01,2013-09-29 07:40:00,
2013-09-29 00:45:00,47.3,46.8,28.41,ESE,112,0.0,0.0,98,0.00,,RA,0.00,VWS V14.01,2013-09-29 07:45:00,
2013-09-29 00:50:00,47.3,46.8,28.41,West,270,0.0,0.0,98,0.00,,RA,0.00,VWS V14.01,2013-09-29 07:50:00,
2013-09-29 00:55:00,47.3,46.8,28.41,SSW,202,0.0,0.0,98,0.00,,RA,0.00,VWS V14.01,2013-09-29 07:55:00,
2013-09-29 01:00:00,47.3,46.8,28.44,North,0,0.0,0.0,98,0.00,,RA,0.00,VWS V14.01,2013-09-29 08:00:00,
2013-09-29 01:05:00,47.3,46.8,28.44,North,0,0.0,0.0,98,0.00,,RA,0.00,VWS V14.01,2013-09-29 08:05:00,
2013-09-29 01:10:00,47.3,46.8,28.44,East,90,0.0,0.0,98,0.00,,RA,0.00,VWS V14.01,2013-09-29 08:10:00,
2013-09-29 01:15:00,47.3,46.8,28.44,WSW,248,0.0,0.0,98,0.00,,RA,0.00,VWS V14.01,2013-09-29 08:15:00,
2013-09-29 01:20:00,47.3,46.8,28.44,NNE,22,1.3,1.3,98,0.00,,RA,0.00,VWS V14.01,2013-09-29 08:20:00,
2013-09-29 01:25:00,47.3,46.8,28.44,ESE,112,0.0,0.0,98,0.00,,RA,0.00,VWS V14.01,2013-09-29 08:25:00,
2013-09-29 01:30:00,47.3,46.8,28.44,NE,45,0.0,0.0,98,0.00,,RA,0.00,VWS V14.01,2013-09-29 08:30:00,
2013-09-29 01:35:00,47.3,46.8,28.44,WSW,248,1.3,1.3,98,0.00,,RA,0.00,VWS V14.01,2013-09-29 08:35:00,
2013-09-29 01:40:00,47.3,46.8,28.44,East,90,0.0,0.0,98,0.00,,RA,0.00,VWS V14.01,2013-09-29 08:40:00,
2013-09-29 01:45:00,47.3,46.8,28.44,SSW,202,0.0,0.0,98,0.00,,RA,0.00,VWS V14.01,2013-09-29 08:45:00,
2013-09-29 01:50:00,47.3,46.8,28.44,South,180,0.0,0.0,98,0.00,,RA,0.00,VWS V14.01,2013-09-29 08:50:00,
2013-09-29 01:55:00,47.3,46.8,28.44,South,180,0.0,0.0,98,0.00,,RA,0.00,VWS V14.01,2013-09-29 08:55:00,
2013-09-29 02:00:00,47.3,46.8,28.44,West,270,0.0,0.0,98,0.00,,RA,0.00,VWS V14.01,2013-09-29 09:00:00,
2013-09-29 02:05:00,47.3,46.8,28.44,East,90,0.0,0.0,98,0.00,,RA,0.00,VWS V14.01,2013-09-29 09:05:00,
2013-09-29 02:10:00,47.3,46.8,28.44,North,0,0.0,0.0,98,0.05,,RA,0.05,VWS V14.01,2013-09-29 09:10:00,
2013-09-29 02:15:00,47.3,46.8,28.44,ESE,112,0.0,0.0,98,0.05,,RA,0.05,VWS V14.01,2013-09-29 09:15:00,
2013-09-29 02:20:00,47.3,46.8,28.44,WSW,248,0.0,0.0,98,0.05,,RA,0.05,VWS V14.01,2013-09-29 09:20:00,
2013-09-29 02:25:00,47.3,46.8,28.44,SSW,202,0.0,0.0,98,0.05,,RA,0.05,VWS V14.01,2013-09-29 09:25:00,
2013-09-29 02:30:00,47.3,46.8,28.44,NW,315,0.0,0.0,98,0.05,,RA,0.05,VWS V14.01,2013-09-29 09:30:00,
2013-09-29 02:35:00,47.3,46.8,28.44,WSW,248,0.0,0.0,98,0.05,,RA,0.05,VWS V14.01,2013-09-29 09:35:00,
2013-09-29 02:40:00,47.3,46.8,28.44,North,0,0.0,0.0,98,0.05,,RA,0.05,VWS V14.01,2013-09-29 09:40:00,
2013-09-29 02:45:00,47.3,46.8,28.44,East,90,1.3,1.3,98,0.05,,RA,0.05,VWS V14.01,2013-09-29 09:45:00,
2013-09-29 02:50:00,47.3,46.8,28.44,NE,45,0.0,0.0,98,0.05,,RA,0.05,VWS V14.01,2013-09-29 09:50:00,
2013-09-29 02:55:00,47.3,46.8,28.44,WSW,248,0.0,0.0,98,0.09,,RA,0.09,VWS V14.01,2013-09-29 09:55:00,
2013-09-29 03:00:00,47.3,46.8,28.44,SSW,202,0.0,0.0,98,0.09,,OVC070,0.09,VWS V14.01,2013-09-29 10:00:00,
2013-09-29 03:05:00,47.3,46.8,28.44,ENE,68,0.0,0.0,98,0.09,,OVC070,0.09,VWS V14.01,2013-09-29 10:05:00,
2013-09-29 03:10:00,47.3,46.8,28.44,ENE,68,0.0,0.0,98,0.09,,OVC070,0.09,VWS V14.01,2013-09-29 10:10:00,
2013-09-29 03:15:00,47.3,46.8,28.44,North,0,0.0,0.0,98,0.09,,OVC070,0.09,VWS V14.01,2013-09-29 10:15:00,
2013-09-29 03:20:00,47.3,46.8,28.44,NNW,338,0.0,0.0,98,0.09,,OVC070,0.09,VWS V14.01,2013-09-29 10:20:00,
2013-09-29 03:25:00,47.5,47.0,28.44,ENE,68,2.2,2.2,98,0.09,,OVC070,0.09,VWS V14.01,2013-09-29 10:25:00,
2013-09-29 03:30:00,47.3,46.8,28.44,ENE,68,0.0,0.0,98,0.04,,OVC070,0.09,VWS V14.01,2013-09-29 10:30:00,
2013-09-29 03:35:00,47.3,46.8,28.44,WSW,248,1.1,1.1,98,0.04,,OVC070,0.09,VWS V14.01,2013-09-29 10:35:00,
2013-09-29 03:40:00,47.3,46.8,28.44,WSW,248,0.0,0.0,98,0.04,,OVC070,0.09,VWS V14.01,2013-09-29 10:40:00,
2013-09-29 03:45:00,47.3,46.8,28.44,NW,315,0.0,0.0,98,0.08,,OVC070,0.13,VWS V14.01,2013-09-29 10:45:00,
2013-09-29 03:50:00,47.1,46.6,28.44,NW,315,0.0,0.0,98,0.08,,OVC070,0.13,VWS V14.01,2013-09-29 10:50:00,
2013-09-29 03:55:00,47.1,46.6,28.44,NW,315,0.0,0.0,98,0.08,,OVC070,0.13,VWS V14.01,2013-09-29 10:55:00,
2013-09-29 04:00:00,46.9,46.4,28.44,SSW,202,0.0,0.0,98,0.04,,OVC070,0.13,VWS V14.01,2013-09-29 11:00:00,
2013-09-29 04:05:00,46.9,46.4,28.44,South,180,0.0,0.0,98,0.04,,OVC036,0.13,VWS V14.01,2013-09-29 11:05:00,
2013-09-29 04:10:00,46.9,46.4,28.44,East,90,1.6,1.6,98,0.04,,OVC036,0.13,VWS V14.01,2013-09-29 11:10:00,
2013-09-29 04:15:00,47.1,46.6,28.44,ESE,112,1.6,1.6,98,0.04,,OVC036,0.13,VWS V14.01,2013-09-29 11:15:00,
2013-09-29 04:20:00,47.1,46.6,28.44,ENE,68,1.6,1.6,98,0.04,,OVC036,0.13,VWS V14.01,2013-09-29 11:20:00,
2013-09-29 04:25:00,47.3,46.8,28.44,North,0,0.0,0.0,98,0.04,,OVC036,0.13,VWS V14.01,2013-09-29 11:25:00,
2013-09-29 04:30:00,47.1,46.6,28.41,SSW,202,0.0,0.0,98,0.04,,OVC036,0.13,VWS V14.01,2013-09-29 11:30:00,
2013-09-29 04:35:00,47.1,46.6,28.41,NNE,22,0.0,0.0,98,0.04,,OVC036,0.13,VWS V14.01,2013-09-29 11:35:00,
2013-09-29 04:40:00,47.1,46.6,28.41,South,180,0.0,0.0,98,0.08,,OVC036,0.17,VWS V14.01,2013-09-29 11:40:00,
2013-09-29 04:45:00,47.1,46.6,28.41,East,90,0.0,0.0,98,0.08,,OVC036,0.17,VWS V14.01,2013-09-29 11:45:00,
2013-09-29 04:50:00,47.1,46.6,28.41,East,90,0.0,0.0,98,0.08,,OVC036,0.17,VWS V14.01,2013-09-29 11:50:00,
2013-09-29 04:55:00,47.1,46.6,28.41,East,90,0.0,0.0,98,0.08,,OVC036,0.17,VWS V14.01,2013-09-29 11:55:00,
2013-09-29 05:00:00,47.1,46.6,28.41,NNW,338,2.0,2.0,98,0.12,,OVC036,0.21,VWS V14.01,2013-09-29 12:00:00,
2013-09-29 05:05:00,47.3,46.8,28.41,North,0,0.9,0.9,98,0.08,,OVC036,0.21,VWS V14.01,2013-09-29 12:05:00,
2013-09-29 05:10:00,47.3,46.8,28.41,West,270,0.9,0.9,98,0.08,,OVC036,0.21,VWS V14.01,2013-09-29 12:10:00,
2013-09-29 05:15:00,47.3,46.8,28.44,NW,315,0.0,0.0,98,0.08,,OVC036,0.21,VWS V14.01,2013-09-29 12:15:00,
2013-09-29 05:20:00,47.3,46.8,28.44,SSW,202,0.0,0.0,98,0.08,,OVC036,0.21,VWS V14.01,2013-09-29 12:20:00,
2013-09-29 05:25:00,47.1,46.6,28.44,WSW,248,0.0,0.0,98,0.08,,OVC036,0.21,VWS V14.01,2013-09-29 12:25:00,
2013-09-29 05:30:00,47.1,46.6,28.44,SE,135,0.0,0.0,98,0.08,,OVC036,0.21,VWS V14.01,2013-09-29 12:30:00,
2013-09-29 05:35:00,47.1,46.6,28.44,SE,135,0.0,0.0,98,0.08,,OVC070,0.21,VWS V14.01,2013-09-29 12:35:00,
2013-09-29 05:40:00,47.1,46.6,28.44,NE,45,0.0,0.0,98,0.08,,OVC070,0.21,VWS V14.01,2013-09-29 12:40:00,
2013-09-29 05:45:00,47.1,46.6,28.41,South,180,0.0,0.0,98,0.08,,OVC070,0.21,VWS V14.01,2013-09-29 12:45:00,
2013-09-29 05:50:00,47.1,46.6,28.41,East,90,0.0,0.0,98,0.08,,OVC070,0.21,VWS V14.01,2013-09-29 12:50:00,
2013-09-29 05:55:00,47.1,46.6,28.41,NW,315,1.1,1.1,98,0.08,,OVC070,0.21,VWS V14.01,2013-09-29 12:55:00,
2013-09-29 06:00:00,47.3,46.8,28.44,WSW,248,0.0,0.0,98,0.08,,OVC070,0.21,VWS V14.01,2013-09-29 13:00:00,
2013-09-29 06:05:00,47.3,46.8,28.44,SW,225,1.3,1.3,98,0.00,,OVC047,0.21,VWS V14.01,2013-09-29 13:05:00,
2013-09-29 06:10:00,47.1,46.6,28.44,WSW,248,2.0,2.0,98,0.00,,OVC047,0.21,VWS V14.01,2013-09-29 13:10:00,
2013-09-29 06:15:00,47.1,46.6,28.41,WSW,248,0.0,0.0,98,0.00,,OVC047,0.21,VWS V14.01,2013-09-29 13:15:00,
2013-09-29 06:20:00,47.1,46.6,28.41,West,270,0.0,0.0,98,0.00,,OVC047,0.21,VWS V14.01,2013-09-29 13:20:00,
2013-09-29 06:25:00,47.1,46.6,28.41,SSW,202,1.3,1.3,98,0.00,,OVC047,0.21,VWS V14.01,2013-09-29 13:25:00,
2013-09-29 06:30:00,46.9,46.4,28.41,West,270,0.0,0.0,98,0.00,,OVC047,0.21,VWS V14.01,2013-09-29 13:30:00,
2013-09-29 06:35:00,46.9,46.4,28.41,West,270,0.0,0.0,98,0.00,,OVC047,0.21,VWS V14.01,2013-09-29 13:35:00,
2013-09-29 06:39:00,46.9,46.4,28.41,ESE,112,0.0,0.0,98,0.00,,OVC047,0.21,VWS V14.01,2013-09-29 13:39:00,
2013-09-29 06:44:00,46.9,46.4,28.41,North,0,0.0,0.0,98,0.04,,OVC047,0.25,VWS V14.01,2013-09-29 13:44:00,
2013-09-29 06:49:00,47.1,46.6,28.41,NE,45,3.4,3.4,98,0.04,,OVC047,0.25,VWS V14.01,2013-09-29 13:49:00,
2013-09-29 06:54:00,47.1,46.6,28.41,SW,225,0.0,0.0,98,0.04,,OVC047,0.25,VWS V14.01,2013-09-29 13:54:00,
2013-09-29 06:59:00,47.1,46.6,28.44,NE,45,4.0,4.0,98,0.04,,OVC047,0.25,VWS V14.01,2013-09-29 13:59:00,
2013-09-29 07:00:00,47.3,46.8,28.44,South,180,0.0,0.0,98,0.08,,BKN075,0.21,VWS V14.01,2013-09-29 14:00:00,
2013-09-29 07:04:00,47.1,46.6,28.44,WSW,248,1.3,1.3,98,0.04,,OVC110,0.25,VWS V14.01,2013-09-29 14:04:00,
2013-09-29 07:09:00,47.3,46.8,28.44,WSW,248,2.0,2.0,98,0.08,,OVC110,0.29,VWS V14.01,2013-09-29 14:09:00,
2013-09-29 07:14:00,47.3,46.8,28.44,ENE,68,0.0,0.0,98,0.08,,OVC110,0.29,VWS V14.01,2013-09-29 14:14:00,
2013-09-29 07:19:00,47.3,46.8,28.44,WSW,248,0.0,0.0,98,0.08,,OVC110,0.29,VWS V14.01,2013-09-29 14:19:00,
2013-09-29 07:24:00,47.1,46.6,28.44,South,180,0.0,0.0,98,0.08,,OVC110,0.29,VWS V14.01,2013-09-29 14:24:00,
2013-09-29 07:29:00,47.1,46.6,28.44,South,180,0.0,0.0,98,0.08,,OVC110,0.29,VWS V14.01,2013-09-29 14:29:00,
2013-09-29 07:30:00,46.9,46.4,28.41,West,270,0.0,0.0,98,0.00,,BKN075,0.21,VWS V14.01,2013-09-29 14:30:00,
2013-09-29 07:34:00,47.1,46.6,28.44,East,90,0.0,0.0,98,0.08,,OVC110,0.29,VWS V14.01,2013-09-29 14:34:00,
2013-09-29 07:39:00,47.1,46.6,28.44,ENE,68,0.0,0.0,98,0.08,,OVC110,0.29,VWS V14.01,2013-09-29 14:39:00,
2013-09-29 07:44:00,47.1,46.6,28.44,NE,45,0.0,0.0,98,0.08,,OVC110,0.29,VWS V14.01,2013-09-29 14:44:00,
2013-09-29 07:49:00,47.3,46.8,28.44,West,270,0.0,0.0,98,0.08,,OVC110,0.29,VWS V14.01,2013-09-29 14:49:00,
2013-09-29 07:54:00,47.3,46.8,28.44,North,0,0.0,0.0,98,0.08,,OVC110,0.29,VWS V14.01,2013-09-29 14:54:00,
2013-09-29 07:59:00,47.3,46.8,28.44,NE,45,0.0,0.0,98,0.08,,OVC110,0.29,VWS V14.01,2013-09-29 14:59:00,
2013-09-29 08:00:00,47.1,46.6,28.44,NE,45,3.8,3.8,98,0.04,,BKN075,0.25,VWS V14.01,2013-09-29 15:00:00,
2013-09-29 08:04:00,47.3,46.8,28.44,ESE,112,0.0,0.0,98,0.04,,-RA,0.29,VWS V14.01,2013-09-29 15:04:00,
2013-09-29 08:09:00,47.3,46.8,28.44,WNW,292,1.3,1.3,98,0.04,,-RA,0.29,VWS V14.01,2013-09-29 15:09:00,
2013-09-29 08:14:00,47.3,46.8,28.44,SE,135,0.0,0.0,98,0.08,,-RA,0.33,VWS V14.01,2013-09-29 15:14:00,
2013-09-29 08:19:00,47.3,46.8,28.44,NNE,22,0.9,0.9,98,0.08,,-RA,0.33,VWS V14.01,2013-09-29 15:19:00,
2013-09-29 08:24:00,47.3,46.8,28.44,WNW,292,0.0,0.0,98,0.08,,-RA,0.33,VWS V14.01,2013-09-29 15:24:00,
2013-09-29 08:29:00,47.5,47.0,28.44,WSW,248,0.0,0.0,98,0.08,,-RA,0.33,VWS V14.01,2013-09-29 15:29:00,
2013-09-29 08:30:00,47.1,46.6,28.44,South,180,0.0,0.0,98,0.08,,BKN075,0.29,VWS V14.01,2013-09-29 15:30:00,
2013-09-29 08:34:00,47.5,47.0,28.44,WSW,248,0.0,0.0,98,0.04,,-RA,0.33,VWS V14.01,2013-09-29 15:34:00,
2013-09-29 08:39:00,47.5,47.0,28.44,South,180,0.0,0.0,98,0.09,,-RA,0.38,VWS V14.01,2013-09-29 15:39:00,
2013-09-29 08:44:00,47.5,47.0,28.44,NE,45,0.0,0.0,98,0.09,,-RA,0.38,VWS V14.01,2013-09-29 15:44:00,
2013-09-29 08:49:00,47.5,47.0,28.44,East,90,2.0,2.0,98,0.13,,-RA,0.42,VWS V14.01,2013-09-29 15:49:00,
2013-09-29 08:54:00,47.5,47.0,28.44,East,90,0.0,0.0,98,0.13,,-RA,0.42,VWS V14.01,2013-09-29 15:54:00,
2013-09-29 08:59:00,47.7,47.1,28.47,NNE,22,0.0,0.0,98,0.13,,-RA,0.42,VWS V14.01,2013-09-29 15:59:00,
2013-09-29 09:00:00,47.3,46.8,28.44,NE,45,0.0,0.0,98,0.08,,BKN075,0.29,VWS V14.01,2013-09-29 16:00:00,
2013-09-29 09:04:00,47.5,47.0,28.47,South,180,1.3,1.3,98,0.17,,,0.46,VWS V14.01,2013-09-29 16:04:00,
2013-09-29 09:09:00,47.7,47.1,28.47,NE,45,2.5,2.5,98,0.17,,,0.46,VWS V14.01,2013-09-29 16:09:00,
2013-09-29 09:14:00,47.7,47.1,28.44,NE,45,3.4,3.4,98,0.17,,,0.46,VWS V14.01,2013-09-29 16:14:00,
2013-09-29 09:19:00,47.7,47.1,28.44,NE,45,0.0,0.0,98,0.17,,,0.46,VWS V14.01,2013-09-29 16:19:00,
2013-09-29 09:24:00,47.7,47.1,28.44,NE,45,1.6,1.6,98,0.17,,,0.46,VWS V14.01,2013-09-29 16:24:00,
2013-09-29 09:29:00,47.8,47.3,28.44,NW,315,1.6,1.6,98,0.17,,,0.46,VWS V14.01,2013-09-29 16:29:00,
2013-09-29 09:30:00,47.5,46.9,28.44,WSW,248,0.0,0.0,98,0.08,,BKN075,0.33,VWS V14.01,2013-09-29 16:30:00,
2013-09-29 09:34:00,48.0,47.5,28.44,East,90,2.9,2.9,98,0.13,,,0.46,VWS V14.01,2013-09-29 16:34:00,
2013-09-29 09:39:00,48.0,47.5,28.44,North,0,2.5,2.5,98,0.13,,,0.46,VWS V14.01,2013-09-29 16:39:00,
2013-09-29 09:44:00,48.0,47.5,28.44,NNE,22,2.5,2.5,98,0.13,,,0.46,VWS V14.01,2013-09-29 16:44:00,
2013-09-29 09:49:00,48.0,47.5,28.44,WNW,292,0.0,0.0,98,0.17,,,0.50,VWS V14.01,2013-09-29 16:49:00,
2013-09-29 09:54:00,48.2,47.7,28.44,East,90,1.3,1.3,98,0.17,,,0.50,VWS V14.01,2013-09-29 16:54:00,
2013-09-29 09:59:00,48.2,47.7,28.47,SSW,202,0.0,0.0,98,0.21,,,0.54,VWS V14.01,2013-09-29 16:59:00,
2013-09-29 10:00:00,47.7,47.1,28.47,East,90,2.2,2.2,98,0.13,,BKN075,0.42,VWS V14.01,2013-09-29 17:00:00,
2013-09-29 10:04:00,48.2,47.7,28.47,NE,45,3.8,3.8,98,0.12,,-RA,0.54,VWS V14.01,2013-09-29 17:04:00,
2013-09-29 10:09:00,48.2,47.7,28.47,NW,315,2.5,2.5,98,0.12,,-RA,0.54,VWS V14.01,2013-09-29 17:09:00,
2013-09-29 10:14:00,48.4,47.8,28.47,WSW,248,0.0,0.0,98,0.12,,-RA,0.54,VWS V14.01,2013-09-29 17:14:00,
2013-09-29 10:19:00,48.4,47.8,28.47,WSW,248,0.0,0.0,98,0.16,,-RA,0.58,VWS V14.01,2013-09-29 17:19:00,
2013-09-29 10:24:00,48.0,47.5,28.47,NNW,338,2.0,2.0,98,0.16,,-RA,0.58,VWS V14.01,2013-09-29 17:24:00,
2013-09-29 10:29:00,48.2,47.7,28.47,SSE,158,0.0,0.0,98,0.16,,-RA,0.58,VWS V14.01,2013-09-29 17:29:00,
2013-09-29 10:30:00,47.8,47.3,28.44,WSW,248,0.0,0.0,98,0.17,,BKN075,0.46,VWS V14.01,2013-09-29 17:30:00,
2013-09-29 10:34:00,48.2,47.7,28.47,WNW,292,0.0,0.0,98,0.12,,-RA,0.58,VWS V14.01,2013-09-29 17:34:00,
2013-09-29 10:39:00,48.2,47.7,28.47,NE,45,0.0,0.0,98,0.12,,-RA,0.58,VWS V14.01,2013-09-29 17:39:00,
2013-09-29 10:44:00,48.2,47.7,28.47,East,90,0.0,0.0,98,0.12,,-RA,0.58,VWS V14.01,2013-09-29 17:44:00,
2013-09-29 10:49:00,48.0,47.5,28.47,ENE,68,2.5,2.5,98,0.12,,-RA,0.58,VWS V14.01,2013-09-29 17:49:00,
2013-09-29 10:54:00,48.0,47.5,28.47,ENE,68,0.0,0.0,98,0.12,,-RA,0.58,VWS V14.01,2013-09-29 17:54:00,
2013-09-29 10:59:00,48.0,47.5,28.47,WNW,292,2.5,2.5,98,0.12,,-RA,0.58,VWS V14.01,2013-09-29 17:59:00,
2013-09-29 11:00:00,48.2,47.7,28.47,SW,225,0.0,0.0,98,0.21,,BKN075,0.54,VWS V14.01,2013-09-29 18:00:00,
2013-09-29 11:04:00,48.2,47.7,28.47,NE,45,0.0,0.0,98,0.16,,-RA,0.62,VWS V14.01,2013-09-29 18:04:00,
2013-09-29 11:09:00,48.0,47.5,28.47,NE,45,0.0,0.0,98,0.16,,-RA,0.62,VWS V14.01,2013-09-29 18:09:00,
2013-09-29 11:14:00,48.0,47.5,28.47,NNE,22,2.0,2.0,98,0.16,,-RA,0.62,VWS V14.01,2013-09-29 18:14:00,
2013-09-29 11:19:00,48.0,47.5,28.47,NE,45,1.6,1.6,98,0.16,,-RA,0.62,VWS V14.01,2013-09-29 18:19:00,
2013-09-29 11:24:00,48.2,47.7,28.47,ENE,68,0.0,0.0,98,0.16,,-RA,0.62,VWS V14.01,2013-09-29 18:24:00,
2013-09-29 11:29:00,48.2,47.7,28.47,NW,315,0.0,0.0,98,0.16,,-RA,0.62,VWS V14.01,2013-09-29 18:29:00,
2013-09-29 11:30:00,48.2,47.7,28.47,NNE,22,0.0,0.0,98,0.16,,BKN075,0.58,VWS V14.01,2013-09-29 18:30:00,
2013-09-29 11:34:00,48.2,47.7,28.47,NW,315,0.0,0.0,98,0.04,,-RA,0.62,VWS V14.01,2013-09-29 18:34:00,
2013-09-29 11:39:00,48.4,47.8,28.47,WSW,248,0.0,0.0,98,0.09,,-RA,0.67,VWS V14.01,2013-09-29 18:39:00,
2013-09-29 11:44:00,48.4,47.8,28.47,East,90,0.0,0.0,98,0.09,,-RA,0.67,VWS V14.01,2013-09-29 18:44:00,
2013-09-29 11:49:00,48.6,48.0,28.47,East,90,0.0,0.0,98,0.09,,-RA,0.67,VWS V14.01,2013-09-29 18:49:00,
2013-09-29 11:54:00,48.6,48.0,28.47,ENE,68,1.3,1.3,98,0.09,,-RA,0.67,VWS V14.01,2013-09-29 18:54:00,
2013-09-29 11:59:00,48.6,48.0,28.47,WNW,292,0.0,0.0,98,0.09,,-RA,0.67,VWS V14.01,2013-09-29 18:59:00,
2013-09-29 12:04:00,48.7,48.2,28.47,North,0,0.0,0.0,98,0.05,,SCT060,0.67,VWS V14.01,2013-09-29 19:04:00,
2013-09-29 12:09:00,48.9,48.4,28.47,SSW,202,0.0,0.0,98,0.09,,SCT060,0.71,VWS V14.01,2013-09-29 19:09:00,
2013-09-29 12:14:00,48.7,48.2,28.44,East,90,0.9,0.9,98,0.09,,SCT060,0.71,VWS V14.01,2013-09-29 19:14:00,
2013-09-29 12:19:00,48.7,48.2,28.44,NNW,338,0.0,0.0,98,0.09,,SCT060,0.71,VWS V14.01,2013-09-29 19:19:00,
2013-09-29 12:24:00,48.7,48.2,28.44,WSW,248,0.0,0.0,98,0.09,,SCT060,0.71,VWS V14.01,2013-09-29 19:24:00,
2013-09-29 12:29:00,48.7,48.2,28.47,East,90,0.0,0.0,98,0.09,,SCT060,0.71,VWS V14.01,2013-09-29 19:29:00,
2013-09-29 12:30:00,48.4,47.8,28.47,NW,315,0.0,0.0,98,0.16,,BKN075,0.62,VWS V14.01,2013-09-29 19:30:00,
2013-09-29 12:34:00,48.7,48.2,28.47,NW,315,0.0,0.0,98,0.09,,SCT060,0.71,VWS V14.01,2013-09-29 19:34:00,
2013-09-29 12:39:00,48.7,48.2,28.47,NNW,338,3.4,3.4,98,0.09,,SCT060,0.71,VWS V14.01,2013-09-29 19:39:00,
2013-09-29 12:44:00,48.7,48.2,28.44,SSE,158,0.0,0.0,98,0.13,,SCT060,0.75,VWS V14.01,2013-09-29 19:44:00,
2013-09-29 12:48:00,48.7,48.2,28.44,ENE,68,0.9,0.9,98,0.13,,SCT060,0.75,VWS V14.01,2013-09-29 19:48:00,
2013-09-29 12:53:00,48.7,48.2,28.44,WNW,292,0.0,0.0,98,0.13,,SCT060,0.75,VWS V14.01,2013-09-29 19:53:00,
2013-09-29 12:58:00,48.7,48.2,28.47,East,90,0.0,0.0,98,0.13,,SCT060,0.75,VWS V14.01,2013-09-29 19:58:00,
2013-09-29 13:00:00,48.6,48.0,28.47,WNW,292,0.0,0.0,98,0.09,,BKN075,0.67,VWS V14.01,2013-09-29 20:00:00,
2013-09-29 13:03:00,48.7,48.2,28.47,NE,45,1.3,1.3,98,0.08,,BKN037,0.75,VWS V14.01,2013-09-29 20:03:00,
2013-09-29 13:08:00,48.7,48.2,28.47,East,90,2.5,2.5,98,0.08,,BKN037,0.75,VWS V14.01,2013-09-29 20:08:00,
2013-09-29 13:13:00,48.9,48.4,28.47,East,90,3.1,3.1,98,0.12,,BKN037,0.79,VWS V14.01,2013-09-29 20:13:00,
2013-09-29 13:18:00,48.7,48.2,28.44,East,90,1.6,1.6,98,0.12,,BKN037,0.79,VWS V14.01,2013-09-29 20:18:00,
2013-09-29 13:23:00,48.9,48.4,28.44,NNE,22,3.1,3.1,98,0.12,,BKN037,0.79,VWS V14.01,2013-09-29 20:23:00,
2013-09-29 13:28:00,48.9,48.4,28.44,NNE,22,2.5,2.5,98,0.12,,BKN037,0.79,VWS V14.01,2013-09-29 20:28:00,
2013-09-29 13:30:00,48.7,48.2,28.47,SW,225,0.0,0.0,98,0.09,,BKN075,0.71,VWS V14.01,2013-09-29 20:30:00,
2013-09-29 13:33:00,48.7,48.2,28.44,NE,45,2.5,2.5,98,0.08,,BKN037,0.79,VWS V14.01,2013-09-29 20:33:00,
2013-09-29 13:38:00,48.9,48.4,28.44,NNE,22,0.9,0.9,98,0.08,,BKN037,0.79,VWS V14.01,2013-09-29 20:38:00,
2013-09-29 13:43:00,48.9,48.4,28.44,NNE,22,2.2,2.2,98,0.08,,BKN037,0.79,VWS V14.01,2013-09-29 20:43:00,
2013-09-29 13:48:00,48.9,48.4,28.44,East,90,1.6,1.6,98,0.12,,BKN037,0.83,VWS V14.01,2013-09-29 20:48:00,
2013-09-29 13:53:00,49.1,48.6,28.44,NE,45,0.0,0.0,98,0.12,,BKN037,0.83,VWS V14.01,2013-09-29 20:53:00,
2013-09-29 13:58:00,49.3,48.7,28.44,NE,45,0.0,0.0,98,0.12,,BKN037,0.83,VWS V14.01,2013-09-29 20:58:00,
2013-09-29 14:00:00,48.7,48.2,28.47,ENE,68,1.3,1.3,98,0.13,,BKN075,0.75,VWS V14.01,2013-09-29 21:00:00,
2013-09-29 14:03:00,49.1,48.6,28.44,East,90,0.0,0.0,98,0.08,,-RA,0.83,VWS V14.01,2013-09-29 21:03:00,
2013-09-29 14:08:00,49.1,48.6,28.44,ENE,68,1.3,1.3,98,0.08,,-RA,0.83,VWS V14.01,2013-09-29 21:08:00,
2013-09-29 14:13:00,49.1,48.6,28.44,East,90,0.0,0.0,98,0.08,,-RA,0.83,VWS V14.01,2013-09-29 21:13:00,
2013-09-29 14:18:00,48.9,48.4,28.41,SSE,158,3.4,3.4,98,0.08,,-RA,0.83,VWS V14.01,2013-09-29 21:18:00,
2013-09-29 14:23:00,48.7,48.2,28.41,East,90,5.4,5.4,98,0.08,,-RA,0.83,VWS V14.01,2013-09-29 21:23:00,
2013-09-29 14:28:00,48.6,48.0,28.41,NNE,22,2.5,2.5,98,0.08,,-RA,0.83,VWS V14.01,2013-09-29 21:28:00,
2013-09-29 14:30:00,48.9,48.4,28.44,NE,45,2.0,2.0,98,0.12,,BKN075,0.79,VWS V14.01,2013-09-29 21:30:00,
2013-09-29 14:33:00,48.6,48.0,28.41,NE,45,2.9,2.9,98,0.08,,-RA,0.87,VWS V14.01,2013-09-29 21:33:00,
2013-09-29 14:38:00,48.4,47.8,28.41,ENE,68,2.7,2.7,98,0.08,,-RA,0.87,VWS V14.01,2013-09-29 21:38:00,
2013-09-29 14:43:00,48.4,47.8,28.41,SE,135,0.0,0.0,98,0.08,,-RA,0.87,VWS V14.01,2013-09-29 21:43:00,
2013-09-29 14:48:00,48.6,48.0,28.41,ENE,68,1.6,1.6,98,0.08,,-RA,0.87,VWS V14.01,2013-09-29 21:48:00,
2013-09-29 14:53:00,48.6,48.0,28.41,North,0,0.0,0.0,98,0.08,,-RA,0.87,VWS V14.01,2013-09-29 21:53:00,
2013-09-29 14:58:00,48.7,48.2,28.41,West,270,0.0,0.0,98,0.13,,-RA,0.92,VWS V14.01,2013-09-29 21:58:00,
2013-09-29 15:00:00,49.3,48.7,28.44,SSE,158,0.0,0.0,98,0.12,,BKN075,0.83,VWS V14.01,2013-09-29 22:00:00,
2013-09-29 15:03:00,48.7,48.2,28.41,NW,315,0.0,0.0,98,0.09,,-RA,0.92,VWS V14.01,2013-09-29 22:03:00,
2013-09-29 15:08:00,48.7,48.2,28.41,North,0,1.1,1.1,98,0.09,,-RA,0.92,VWS V14.01,2013-09-29 22:08:00,
2013-09-29 15:13:00,48.7,48.2,28.38,NW,315,0.0,0.0,98,0.09,,-RA,0.92,VWS V14.01,2013-09-29 22:13:00,
2013-09-29 15:18:00,48.7,48.2,28.38,NNW,338,2.0,2.0,98,0.09,,-RA,0.92,VWS V14.01,2013-09-29 22:18:00,
2013-09-29 15:23:00,48.7,48.2,28.38,NE,45,0.0,0.0,98,0.09,,-RA,0.92,VWS V14.01,2013-09-29 22:23:00,
2013-09-29 15:28:00,48.7,48.2,28.38,North,0,2.9,2.9,98,0.13,,-RA,0.96,VWS V14.01,2013-09-29 22:28:00,
2013-09-29 15:30:00,48.6,48.0,28.41,East,90,2.9,2.9,98,0.08,,BKN075,0.83,VWS V14.01,2013-09-29 22:30:00,
2013-09-29 15:33:00,48.7,48.2,28.38,WSW,248,0.0,0.0,98,0.13,,-RA,0.96,VWS V14.01,2013-09-29 22:33:00,
2013-09-29 15:38:00,48.7,48.2,28.38,NNW,338,0.0,0.0,98,0.13,,-RA,0.96,VWS V14.01,2013-09-29 22:38:00,
2013-09-29 15:43:00,48.7,48.2,28.38,North,0,3.4,3.4,98,0.13,,-RA,0.96,VWS V14.01,2013-09-29 22:43:00,
2013-09-29 15:48:00,48.7,48.2,28.38,ENE,68,3.4,3.4,98,0.13,,-RA,0.96,VWS V14.01,2013-09-29 22:48:00,
2013-09-29 15:53:00,48.7,48.2,28.38,ENE,68,2.5,2.5,98,0.13,,-RA,0.96,VWS V14.01,2013-09-29 22:53:00,
2013-09-29 15:58:00,48.7,48.2,28.38,West,270,0.0,0.0,98,0.13,,-RA,0.96,VWS V14.01,2013-09-29 22:58:00,
2013-09-29 16:00:00,48.7,48.2,28.41,West,270,0.0,0.0,98,0.13,,BKN075,0.92,VWS V14.01,2013-09-29 23:00:00,
2013-09-29 16:03:00,48.7,48.2,28.38,ESE,112,2.7,2.7,98,0.04,,-RA,0.96,VWS V14.01,2013-09-29 23:03:00,
2013-09-29 16:08:00,48.7,47.9,28.38,NNE,22,2.0,2.0,97,0.08,,-RA,1.00,VWS V14.01,2013-09-29 23:08:00,
2013-09-29 16:13:00,48.7,47.9,28.35,East,90,0.9,0.9,97,0.08,,-RA,1.00,VWS V14.01,2013-09-29 23:13:00,
2013-09-29 16:18:00,48.6,47.8,28.35,WSW,248,2.2,2.2,97,0.08,,-RA,1.00,VWS V14.01,2013-09-29 23:18:00,
2013-09-29 16:23:00,48.4,47.6,28.35,ENE,68,1.3,1.3,97,0.08,,-RA,1.00,VWS V14.01,2013-09-29 23:23:00,
2013-09-29 16:28:00,48.4,47.6,28.35,West,270,1.3,1.3,97,0.08,,-RA,1.00,VWS V14.01,2013-09-29 23:28:00,
2013-09-29 16:30:00,48.7,48.2,28.38,NNE,22,1.3,1.3,98,0.13,,BKN075,0.96,VWS V14.01,2013-09-29 23:30:00,
2013-09-29 16:33:00,48.2,47.4,28.35,NW,315,2.9,2.9,97,0.08,,-RA,1.04,VWS V14.01,2013-09-29 23:33:00,
2013-09-29 16:38:00,48.2,47.1,28.35,East,90,1.3,1.3,96,0.08,,-RA,1.04,VWS V14.01,2013-09-29 23:38:00,
2013-09-29 16:43:00,48.2,47.1,28.35,ESE,112,4.3,4.3,96,0.08,,-RA,1.04,VWS V14.01,2013-09-29 23:43:00,
2013-09-29 16:48:00,48.0,46.9,28.35,South,180,2.7,2.7,96,0.08,,-RA,1.04,VWS V14.01,2013-09-29 23:48:00,
2013-09-29 16:53:00,48.0,46.9,28.35,NNE,22,2.7,2.7,96,0.08,,-RA,1.04,VWS V14.01,2013-09-29 23:53:00,
2013-09-29 16:58:00,48.0,46.9,28.32,North,0,3.4,3.4,96,0.12,,-RA,1.08,VWS V14.01,2013-09-29 23:58:00,
2013-09-29 17:00:00,48.7,48.2,28.38,NE,45,3.1,3.1,98,0.13,,BKN075,0.96,VWS V14.01,2013-09-30 00:00:00,
2013-09-29 17:03:00,47.8,46.8,28.32,NE,45,1.6,1.6,96,0.12,,-RA,1.08,VWS V14.01,2013-09-30 00:03:00,
2013-09-29 17:07:00,47.8,47.0,28.32,ENE,68,5.8,5.8,97,0.12,,-RA,1.08,VWS V14.01,2013-09-30 00:07:00,
2013-09-29 17:12:00,47.8,47.0,28.32,NNE,22,3.6,3.6,97,0.12,,-RA,1.08,VWS V14.01,2013-09-30 00:12:00,
2013-09-29 17:17:00,47.8,47.0,28.32,ENE,68,3.4,3.4,97,0.16,,-RA,1.12,VWS V14.01,2013-09-30 00:17:00,
2013-09-29 17:22:00,47.8,47.0,28.32,NE,45,3.4,3.4,97,0.16,,-RA,1.12,VWS V14.01,2013-09-30 00:22:00,
2013-09-29 17:27:00,48.0,47.2,28.29,NE,45,1.1,1.1,97,0.16,,-RA,1.12,VWS V14.01,2013-09-30 00:27:00,
2013-09-29 17:30:00,48.4,47.6,28.35,WNW,292,3.1,3.1,97,0.12,,BKN075,1.04,VWS V14.01,2013-09-30 00:30:00,
2013-09-29 17:32:00,48.0,46.9,28.29,WSW,248,4.0,4.0,96,0.08,,-RA,1.12,VWS V14.01,2013-09-30 00:32:00,
2013-09-29 17:37:00,48.0,46.9,28.29,NNW,338,2.9,2.9,96,0.08,,-RA,1.12,VWS V14.01,2013-09-30 00:37:00,
2013-09-29 17:42:00,48.2,46.8,28.29,SSE,158,4.0,4.0,95,0.08,,-RA,1.12,VWS V14.01,2013-09-30 00:42:00,
2013-09-29 17:47:00,48.4,47.0,28.29,ESE,112,0.9,0.9,95,0.08,,-RA,1.12,VWS V14.01,2013-09-30 00:47:00,
2013-09-29 17:52:00,48.4,47.0,28.29,ESE,112,6.5,6.5,95,0.08,,-RA,1.12,VWS V14.01,2013-09-30 00:52:00,
2013-09-29 17:57:00,48.4,46.7,28.26,South,180,3.1,3.1,94,0.08,,-RA,1.12,VWS V14.01,2013-09-30 00:57:00,
2013-09-29 18:00:00,47.8,46.8,28.32,NE,45,3.8,3.8,96,0.12,,BKN075,1.08,VWS V14.01,2013-09-30 01:00:00,
2013-09-29 18:02:00,48.2,46.6,28.26,NE,45,4.9,4.9,94,0.04,,,1.12,VWS V14.01,2013-09-30 01:02:00,
2013-09-29 18:07:00,48.0,46.7,28.26,NE,45,6.3,6.3,95,0.04,,,1.12,VWS V14.01,2013-09-30 01:07:00,
2013-09-29 18:12:00,47.8,46.5,28.26,NNE,22,5.8,5.8,95,0.04,,,1.12,VWS V14.01,2013-09-30 01:12:00,
2013-09-29 18:17:00,48.0,46.7,28.26,NNW,338,4.3,4.3,95,0.04,,,1.12,VWS V14.01,2013-09-30 01:17:00,
2013-09-29 18:22:00,48.4,47.0,28.26,NNE,22,5.4,5.4,95,0.04,,,1.12,VWS V14.01,2013-09-30 01:22:00,
2013-09-29 18:27:00,48.2,46.8,28.23,NNE,22,4.3,4.3,95,0.04,,,1.12,VWS V14.01,2013-09-30 01:27:00,
2013-09-29 18:30:00,48.0,47.2,28.29,ENE,68,1.6,1.6,97,0.16,,BKN075,1.12,VWS V14.01,2013-09-30 01:30:00,
2013-09-29 18:32:00,48.2,46.8,28.23,SE,135,2.5,2.5,95,0.00,,,1.12,VWS V14.01,2013-09-30 01:32:00,
2013-09-29 18:37:00,48.0,46.9,28.23,ENE,68,2.5,2.5,96,0.00,,,1.12,VWS V14.01,2013-09-30 01:37:00,
2013-09-29 18:42:00,47.8,47.0,28.23,NE,45,2.0,2.0,97,0.00,,,1.12,VWS V14.01,2013-09-30 01:42:00,
2013-09-29 18:47:00,47.8,47.0,28.23,North,0,0.0,0.0,97,0.00,,,1.12,VWS V14.01,2013-09-30 01:47:00,
2013-09-29 18:52:00,47.8,47.0,28.23,WNW,292,2.9,2.9,97,0.00,,,1.12,VWS V14.01,2013-09-30 01:52:00,
2013-09-29 18:57:00,47.8,47.3,28.20,NNW,338,2.7,2.7,98,0.00,,,1.12,VWS V14.01,2013-09-30 01:57:00,
2013-09-29 19:00:00,48.4,46.7,28.26,NNE,22,7.6,7.6,94,0.08,,BKN075,1.12,VWS V14.01,2013-09-30 02:00:00,
2013-09-29 19:02:00,48.0,47.5,28.20,WSW,248,7.4,7.4,98,0.00,,-RA,1.12,VWS V14.01,2013-09-30 02:02:00,
2013-09-29 19:07:00,48.4,47.6,28.20,NNW,338,2.9,2.9,97,0.00,,-RA,1.12,VWS V14.01,2013-09-30 02:07:00,
2013-09-29 19:12:00,48.7,47.9,28.20,SE,135,5.4,5.4,97,0.00,,-RA,1.12,VWS V14.01,2013-09-30 02:12:00,
2013-09-29 19:17:00,48.9,47.8,28.20,WNW,292,2.5,2.5,96,0.00,,-RA,1.12,VWS V14.01,2013-09-30 02:17:00,
2013-09-29 19:22:00,49.5,48.1,28.20,ESE,112,6.3,6.3,95,0.00,,-RA,1.12,VWS V14.01,2013-09-30 02:22:00,
2013-09-29 19:27:00,49.6,48.0,28.20,SSW,202,3.8,3.8,94,0.00,,-RA,1.12,VWS V14.01,2013-09-30 02:27:00,
2013-09-29 19:30:00,48.2,46.8,28.23,NNW,338,1.3,1.3,95,0.04,,BKN075,1.12,VWS V14.01,2013-09-30 02:30:00,
2013-09-29 19:32:00,49.1,47.5,28.17,NNW,338,0.9,0.9,94,0.00,,-RA,1.12,VWS V14.01,2013-09-30 02:32:00,
2013-09-29 19:37:00,49.3,47.9,28.17,NW,315,3.4,3.4,95,0.00,,-RA,1.12,VWS V14.01,2013-09-30 02:37:00,
2013-09-29 19:42:00,49.6,48.0,28.17,NW,315,2.9,2.9,94,0.00,,-RA,1.12,VWS V14.01,2013-09-30 02:42:00,
2013-09-29 19:47:00,49.6,48.0,28.17,NNE,22,1.3,1.3,94,0.00,,-RA,1.12,VWS V14.01,2013-09-30 02:47:00,
2013-09-29 19:52:00,49.5,47.5,28.17,North,0,6.0,6.0,93,0.00,,-RA,1.12,VWS V14.01,2013-09-30 02:52:00,
2013-09-29 19:57:00,49.1,47.5,28.17,North,0,4.0,4.0,94,0.04,,-RA,1.16,VWS V14.01,2013-09-30 02:57:00,
2013-09-29 20:00:00,47.8,47.3,28.20,NE,45,4.9,4.9,98,0.00,,BKN075,1.12,VWS V14.01,2013-09-30 03:00:00,
2013-09-29 20:02:00,49.3,47.9,28.14,ENE,68,6.5,6.5,95,0.04,,RA,1.16,VWS V14.01,2013-09-30 03:02:00,
2013-09-29 20:07:00,50.0,48.6,28.14,SSE,158,4.0,4.0,95,0.04,,RA,1.16,VWS V14.01,2013-09-30 03:07:00,
2013-09-29 20:12:00,50.2,48.8,28.14,NE,45,5.4,5.4,95,0.04,,RA,1.16,VWS V14.01,2013-09-30 03:12:00,
2013-09-29 20:17:00,50.2,48.5,28.14,NNE,22,2.5,2.5,94,0.04,,RA,1.16,VWS V14.01,2013-09-30 03:17:00,
2013-09-29 20:22:00,50.2,48.8,28.14,NE,45,3.8,3.8,95,0.04,,RA,1.16,VWS V14.01,2013-09-30 03:22:00,
2013-09-29 20:27:00,50.2,48.8,28.14,ESE,112,3.6,3.6,95,0.04,,RA,1.16,VWS V14.01,2013-09-30 03:27:00,
2013-09-29 20:30:00,49.5,47.8,28.17,WNW,292,4.0,4.0,94,0.00,,BKN075,1.12,VWS V14.01,2013-09-30 03:30:00,
2013-09-29 20:32:00,50.5,49.2,28.14,WNW,292,3.1,3.1,95,0.04,,RA,1.16,VWS V14.01,2013-09-30 03:32:00,
2013-09-29 20:37:00,50.2,48.8,28.14,NNW,338,1.6,1.6,95,0.04,,RA,1.16,VWS V14.01,2013-09-30 03:37:00,
2013-09-29 20:42:00,50.5,49.5,28.14,North,0,4.9,4.9,96,0.04,,RA,1.16,VWS V14.01,2013-09-30 03:42:00,
2013-09-29 20:47:00,50.5,49.2,28.14,SW,225,2.7,2.7,95,0.04,,RA,1.16,VWS V14.01,2013-09-30 03:47:00,
2013-09-29 20:52:00,50.0,48.9,28.14,East,90,2.2,2.2,96,0.08,,RA,1.20,VWS V14.01,2013-09-30 03:52:00,
2013-09-29 20:57:00,50.0,49.2,28.14,NNW,338,2.5,2.5,97,0.08,,RA,1.20,VWS V14.01,2013-09-30 03:57:00,
2013-09-29 21:00:00,49.3,47.9,28.14,NW,315,2.7,2.7,95,0.04,,BKN075,1.16,VWS V14.01,2013-09-30 04:00:00,
2013-09-29 21:01:00,49.8,49.3,28.17,NW,315,0.0,0.0,98,0.13,,,1.25,VWS V14.01,2013-09-30 04:01:00,
2013-09-29 21:06:00,49.8,49.3,28.17,SW,225,4.0,4.0,98,0.09,,,1.25,VWS V14.01,2013-09-30 04:06:00,
2013-09-29 21:11:00,50.0,49.5,28.17,West,270,3.6,3.6,98,0.09,,,1.25,VWS V14.01,2013-09-30 04:11:00,
2013-09-29 21:16:00,50.5,50.0,28.23,SSW,202,3.8,3.8,98,0.21,,,1.37,VWS V14.01,2013-09-30 04:16:00,
2013-09-29 21:21:00,50.5,50.0,28.23,North,0,4.0,4.0,98,0.25,,,1.41,VWS V14.01,2013-09-30 04:21:00,
2013-09-29 21:26:00,50.4,49.8,28.23,WSW,248,2.0,2.0,98,0.25,,,1.41,VWS V14.01,2013-09-30 04:26:00,
2013-09-29 21:30:00,50.4,49.0,28.14,NNW,338,2.9,2.9,95,0.04,,BKN075,1.16,VWS V14.01,2013-09-30 04:30:00,
2013-09-29 21:31:00,50.5,50.0,28.20,North,0,3.4,3.4,98,0.25,,,1.41,VWS V14.01,2013-09-30 04:31:00,
2013-09-29 21:36:00,50.5,50.0,28.20,NE,45,2.0,2.0,98,0.25,,,1.41,VWS V14.01,2013-09-30 04:36:00,
2013-09-29 21:41:00,51.1,50.5,28.20,NNW,338,10.3,10.3,98,0.25,,,1.41,VWS V14.01,2013-09-30 04:41:00,
2013-09-29 21:46:00,51.4,48.0,28.26,NNE,22,17.0,17.0,88,0.25,,,1.41,VWS V14.01,2013-09-30 04:46:00,
2013-09-29 21:51:00,50.9,46.9,28.26,WNW,292,15.9,15.9,86,0.25,,,1.41,VWS V14.01,2013-09-30 04:51:00,
2013-09-29 21:56:00,50.7,46.4,28.26,SW,225,19.7,19.7,85,0.30,,,1.46,VWS V14.01,2013-09-30 04:56:00,
2013-09-29 22:00:00,49.8,49.3,28.17,NW,315,0.0,0.0,98,0.13,,BKN075,1.25,VWS V14.01,2013-09-30 05:00:00,
2013-09-29 22:01:00,50.5,46.8,28.26,NNE,22,13.0,13.0,87,0.21,,BKN060,1.46,VWS V14.01,2013-09-30 05:01:00,
2013-09-29 22:06:00,50.5,47.1,28.26,East,90,1.3,1.3,88,0.21,,BKN060,1.46,VWS V14.01,2013-09-30 05:06:00,
2013-09-29 22:11:00,50.4,47.5,28.26,North,0,4.3,4.3,90,0.21,,BKN060,1.46,VWS V14.01,2013-09-30 05:11:00,
2013-09-29 22:16:00,50.4,47.5,28.29,NE,45,4.9,4.9,90,0.21,,BKN060,1.46,VWS V14.01,2013-09-30 05:16:00,
2013-09-29 22:21:00,50.5,47.4,28.29,West,270,3.4,3.4,89,0.21,,BKN060,1.46,VWS V14.01,2013-09-30 05:21:00,
2013-09-29 22:26:00,50.0,48.1,28.29,East,90,2.5,2.5,93,0.21,,BKN060,1.46,VWS V14.01,2013-09-30 05:26:00,
2013-09-29 22:30:00,50.4,49.8,28.20,WSW,248,0.0,0.0,98,0.25,,BKN075,1.41,VWS V14.01,2013-09-30 05:30:00,
2013-09-29 22:31:00,49.8,48.2,28.29,East,90,2.9,2.9,94,0.05,,BKN060,1.46,VWS V14.01,2013-09-30 05:31:00,
2013-09-29 22:36:00,49.6,48.3,28.29,SSE,158,3.1,3.1,95,0.05,,BKN060,1.46,VWS V14.01,2013-09-30 05:36:00,
2013-09-29 22:41:00,49.8,48.2,28.29,NNE,22,3.4,3.4,94,0.05,,BKN060,1.46,VWS V14.01,2013-09-30 05:41:00,
2013-09-29 22:46:00,49.8,48.2,28.32,NE,45,3.1,3.1,94,0.05,,BKN060,1.46,VWS V14.01,2013-09-30 05:46:00,
2013-09-29 22:51:00,49.6,48.0,28.32,NNW,338,1.6,1.6,94,0.08,,BKN060,1.49,VWS V14.01,2013-09-30 05:51:00,
2013-09-29 22:56:00,49.6,47.7,28.32,NE,45,2.7,2.7,93,0.08,,BKN060,1.49,VWS V14.01,2013-09-30 05:56:00,
2013-09-29 23:00:00,50.4,46.6,28.26,WNW,292,5.6,5.6,87,0.30,,BKN075,1.46,VWS V14.01,2013-09-30 06:00:00,
2013-09-29 23:01:00,49.5,47.5,28.32,WNW,292,2.9,2.9,93,0.08,,BKN060,1.54,VWS V14.01,2013-09-30 06:01:00,
2013-09-29 23:05:00,49.3,47.6,28.32,ESE,112,2.7,2.7,94,0.12,,BKN060,1.58,VWS V14.01,2013-09-30 06:05:00,
2013-09-29 23:10:00,49.1,46.6,28.32,NNE,22,8.1,8.1,91,0.12,,BKN060,1.58,VWS V14.01,2013-09-30 06:10:00,
2013-09-29 23:15:00,49.1,45.7,28.35,NNW,338,7.4,7.4,88,0.12,,BKN060,1.58,VWS V14.01,2013-09-30 06:15:00,
2013-09-29 23:20:00,48.9,46.1,28.35,NE,45,3.4,3.4,90,0.12,,BKN060,1.58,VWS V14.01,2013-09-30 06:20:00,
2013-09-29 23:25:00,49.3,45.3,28.35,West,270,2.2,2.2,86,0.12,,BKN060,1.58,VWS V14.01,2013-09-30 06:25:00,
2013-09-29 23:30:00,48.9,46.1,28.32,WNW,292,2.2,2.2,90,0.12,,BKN060,1.58,VWS V14.01,2013-09-30 06:30:00,
2013-09-29 23:35:00,48.6,46.3,28.32,ESE,112,2.0,2.0,92,0.12,,BKN060,1.58,VWS V14.01,2013-09-30 06:35:00,
2013-09-29 23:40:00,48.2,46.6,28.32,East,90,2.2,2.2,94,0.12,,BKN060,1.58,VWS V14.01,2013-09-30 06:40:00,
2013-09-29 23:45:00,47.8,46.5,28.35,SW,225,0.9,0.9,95,0.12,,BKN060,1.58,VWS V14.01,2013-09-30 06:45:00,
2013-09-29 23:50:00,47.5,46.7,28.35,SSE,158,2.0,2.0,97,0.12,,BKN060,1.58,VWS V14.01,2013-09-30 06:50:00,
2013-09-29 23:55:00,47.3,46.5,28.35,South,180,2.0,2.0,97,0.12,,BKN060,1.58,VWS V14.01,2013-09-30 06:55:00,